Regional Weather Roundup
Issued by NWS

Home | Current Version | Previous Version | Graphics & Text | Print | Product List | Glossary On
Versions: 1 2 3 4 5 6 7 8 9 10 11 12 13 14 15 16 17 18 19 20 21 22 23 24 25 26 27 28 29 30 31 32 33 34 35 36 37 38 39 40 41 42 43 44 45 46 47 48 49 50
000
ASUS43 KBIS 181720
RWRND

NORTH DAKOTA REGIONAL WEATHER ROUNDUP
NATIONAL WEATHER SERVICE BISMARCK ND
1200 PM CDT FRI APR 18 2014

NOTE: "FAIR" INDICATES FEW OR NO CLOUDS BELOW 12,000 FEET WITH NO
SIGNIFICANT WEATHER AND/OR OBSTRUCTIONS TO VISIBILITY.


NDZ001>003-009>011-017-181800-
NORTHWEST NORTH DAKOTA

CITY           SKY/WX    TMP DP  RH WIND       PRES   REMARKS
WILLISTON      CLOUDY    45  27  49 SE17G28   29.81F
MINOT          LGT RAIN  41  23  48 E30G40    29.96F
MINOT AFB      CLOUDY    40  26  56 SE24G35   29.96F
$$

NDZ018>021-031>035-040>046-181800-
SOUTHWEST NORTH DAKOTA

CITY           SKY/WX    TMP DP  RH WIND       PRES   REMARKS
BISMARCK       MOSUNNY   51  28  41 SE24G35   29.95F
DICKINSON      PTSUNNY   51  31  46 SE21      29.79F
GARRISON         N/A     46  26  45 SE23G32   29.93F
HETTINGER ARPT MOSUNNY   50  33  52 SE17G28   29.82F
$$

NDZ004>008-012>016-024-026-027-054-181800-
NORTHEAST NORTH DAKOTA

CITY           SKY/WX    TMP DP  RH WIND       PRES   REMARKS
GRAND FORKS    PTSUNNY   45  24  43 SE17G23   30.23F
GRND FRKS AFB  SUNNY     46  21  36 SE20      30.21F
DEVILS LAKE    PTSUNNY   43  23  45 SE28G35   30.10F
$$

NDZ022-023-025-028>030-036>039-047>053-181800-
SOUTHEAST NORTH DAKOTA

CITY           SKY/WX    TMP DP  RH WIND       PRES   REMARKS
FARGO          CLOUDY    45  28  51 SE15      30.22F
JAMESTOWN      MOSUNNY   45  24  43 SE29G37   30.07F
$$




USA.gov is the U.S. government's official web portal to all federal, state and local government web resources and services.